Location: Four Corners
(38.2757°N, 122.4608°W)
Time: 04:17:05
(UTC+00:00)

STARLINK-52 - Pass Details

Date: 08 December 2019
Orbit: 442 x 445 km, 53.0° (Epoch: 18 January)

Event Time Altitude Azimuth Distance (km) Brightness Sun altitude
Rises 02:52:13 0° 236° (SW) 2,419 8.0 -23.4°
Reaches altitude 10° 02:54:21 10° 240° (WSW) 1,553 6.9 -23.9°
Enters shadow 02:57:00 44° 268° (W) 618 4.2 -24.4°
